• In Germany
  • List of Countries
  • For 7 days
  • Water Temperature
  • Satellite Maps
  • Weather Map
  • Weather Widgets
  • user-avatar
    Login

    Hourly Weather Jewłach

    Today, 24 July, Monday

    Time Temperature Precipitation Wind Pressure Humidity
    00:00 +31°C° 0.1 mm 2 mps 756 mmHg 33%
    01:00 +31°C° 0 mm 2 mps 756 mmHg 35%
    02:00 +30°C° 0 mm 2 mps 756 mmHg 36%
    03:00 +29°C° 0 mm 1 mps 756 mmHg 46%
    04:00 +29°C° 0 mm 2 mps 756 mmHg 46%
    05:00 +30°C° 0 mm 2 mps 756 mmHg 47%
    06:00 +30°C° 0 mm 2 mps 756 mmHg 48%
    07:00 +31°C° 0 mm 3 mps 756 mmHg 45%
    08:00 +34°C° 0 mm 3 mps 756 mmHg 42%
    09:00 +35°C° 0 mm 4 mps 756 mmHg 39%
    10:00 +36°C° 0 mm 4 mps 756 mmHg 36%
    11:00 +37°C° 0 mm 5 mps 755 mmHg 33%
    12:00 +39°C° 0 mm 5 mps 755 mmHg 29%
    13:00 +40°C° 0 mm 5 mps 755 mmHg 29%
    14:00 +40°C° 0 mm 6 mps 755 mmHg 28%
    15:00 +40°C° 0 mm 6 mps 754 mmHg 28%
    16:00 +39°C° 0 mm 6 mps 755 mmHg 29%
    17:00 +39°C° 0 mm 6 mps 755 mmHg 30%
    18:00 +38°C° 0 mm 7 mps 755 mmHg 31%
    19:00 +35°C° 0 mm 6 mps 755 mmHg 36%
    20:00 +33°C° 0 mm 6 mps 755 mmHg 40%
    21:00 +30°C° 0 mm 5 mps 756 mmHg 45%
    22:00 +29°C° 0 mm 4 mps 756 mmHg 49%
    23:00 +28°C° 0 mm 4 mps 756 mmHg 52%

    Tomorrow, 25 July, Tuesday

    Time Temperature Precipitation Wind Pressure Humidity
    00:00 +27°C° 0 mm 3 mps 756 mmHg 56%
    01:00 +27°C° 0 mm 3 mps 756 mmHg 57%
    02:00 +26°C° 0 mm 2 mps 756 mmHg 59%
    03:00 +26°C° 0 mm 2 mps 756 mmHg 60%
    04:00 +26°C° 0 mm 2 mps 756 mmHg 59%
    05:00 +27°C° 0 mm 1 mps 756 mmHg 58%
    06:00 +27°C° 0 mm 1 mps 756 mmHg 57%
    07:00 +29°C° 0 mm 1 mps 756 mmHg 52%
    08:00 +30°C° 0 mm 2 mps 755 mmHg 46%
    09:00 +32°C° 0 mm 2 mps 755 mmHg 41%
    10:00 +34°C° 0 mm 2 mps 755 mmHg 37%
    11:00 +35°C° 0 mm 2 mps 754 mmHg 33%
    12:00 +37°C° 0 mm 2 mps 754 mmHg 29%
    13:00 +38°C° 0 mm 2 mps 753 mmHg 27%
    14:00 +38°C° 0 mm 2 mps 753 mmHg 25%
    15:00 +39°C° 0 mm 3 mps 752 mmHg 24%
    16:00 +39°C° 0 mm 3 mps 752 mmHg 24%
    17:00 +38°C° 0 mm 3 mps 752 mmHg 25%
    18:00 +38°C° 0 mm 3 mps 752 mmHg 25%
    19:00 +36°C° 0 mm 4 mps 753 mmHg 28%
    20:00 +35°C° 0 mm 4 mps 754 mmHg 31%
    21:00 +33°C° 0 mm 4 mps 754 mmHg 34%
    22:00 +31°C° 0 mm 3 mps 754 mmHg 38%
    23:00 +30°C° 0 mm 3 mps 754 mmHg 42%

    Day after tomorrow, 26 July, Wednesday

    Time Temperature Precipitation Wind Pressure Humidity
    00:00 +29°C° 0 mm 3 mps 755 mmHg 46%
    01:00 +29°C° 0 mm 2 mps 755 mmHg 47%
    02:00 +28°C° 0 mm 2 mps 755 mmHg 49%
    03:00 +27°C° 0 mm 2 mps 755 mmHg 51%
    04:00 +28°C° 0 mm 2 mps 755 mmHg 50%
    05:00 +28°C° 0 mm 1 mps 755 mmHg 48%
    06:00 +29°C° 0 mm 1 mps 755 mmHg 47%
    07:00 +30°C° 0 mm 2 mps 755 mmHg 43%
    08:00 +32°C° 0 mm 2 mps 755 mmHg 38%
    09:00 +35°C° 0 mm 3 mps 754 mmHg 34%
    10:00 +36°C° 0 mm 2 mps 754 mmHg 31%
    11:00 +37°C° 0 mm 2 mps 754 mmHg 29%
    12:00 +38°C° 0 mm 2 mps 753 mmHg 26%
    13:00 +39°C° 0 mm 2 mps 753 mmHg 25%
    14:00 +40°C° 0 mm 2 mps 753 mmHg 23%
    15:00 +41°C° 0 mm 2 mps 752 mmHg 22%
    16:00 +40°C° 0 mm 3 mps 753 mmHg 22%
    17:00 +40°C° 0 mm 3 mps 753 mmHg 23%
    18:00 +40°C° 0 mm 3 mps 753 mmHg 23%
    19:00 +38°C° 0 mm 4 mps 754 mmHg 27%
    20:00 +36°C° 0 mm 4 mps 754 mmHg 30%
    21:00 +33°C° 0 mm 4 mps 755 mmHg 34%
    22:00 +33°C° 0 mm 4 mps 755 mmHg 37%
    23:00 +31°C° 0 mm 3 mps 755 mmHg 39%

    27 July, Thursday

    Time Temperature Precipitation Wind Pressure Humidity
    00:00 +30°C° 0 mm 2 mps 756 mmHg 42%
    01:00 +29°C° 0 mm 2 mps 756 mmHg 43%
    02:00 +29°C° 0 mm 2 mps 756 mmHg 44%
    03:00 +28°C° 0 mm 1 mps 756 mmHg 44%
    04:00 +29°C° 0 mm 1 mps 756 mmHg 44%
    05:00 +29°C° 0 mm 1 mps 756 mmHg 43%
    06:00 +30°C° 0 mm 2 mps 756 mmHg 42%
    07:00 +31°C° 0 mm 2 mps 756 mmHg 38%
    08:00 +34°C° 0 mm 2 mps 756 mmHg 35%
    09:00 +36°C° 0 mm 2 mps 756 mmHg 31%
    10:00 +37°C° 0 mm 2 mps 755 mmHg 28%
    11:00 +38°C° 0 mm 2 mps 755 mmHg 26%
    12:00 +39°C° 0 mm 2 mps 755 mmHg 24%
    13:00 +40°C° 0 mm 2 mps 754 mmHg 23%
    14:00 +41°C° 0 mm 2 mps 754 mmHg 21%
    15:00 +42°C° 0 mm 2 mps 753 mmHg 20%
    16:00 +41°C° 0 mm 2 mps 754 mmHg 20%
    17:00 +41°C° 0 mm 2 mps 754 mmHg 21%
    18:00 +41°C° 0 mm 2 mps 754 mmHg 21%
    19:00 +39°C° 0 mm 2 mps 755 mmHg 23%
    20:00 +37°C° 0 mm 3 mps 755 mmHg 25%
    21:00 +35°C° 0 mm 3 mps 756 mmHg 27%
    22:00 +34°C° 0 mm 3 mps 756 mmHg 29%
    23:00 +33°C° 0 mm 3 mps 756 mmHg 31%

    28 July, Friday

    Time Temperature Precipitation Wind Pressure Humidity
    00:00 +31°C° 0 mm 3 mps 756 mmHg 33%
    01:00 +31°C° 0 mm 2 mps 756 mmHg 35%
    02:00 +30°C° 0 mm 2 mps 756 mmHg 36%
    03:00 +30°C° 0 mm 1 mps 756 mmHg 37%
    04:00 +30°C° 0 mm 1 mps 756 mmHg 37%
    05:00 +31°C° 0 mm 1 mps 756 mmHg 36%
    06:00 +31°C° 0 mm 1 mps 756 mmHg 36%
    07:00 +34°C° 0 mm 2 mps 756 mmHg 32%
    08:00 +36°C° 0 mm 2 mps 755 mmHg 29%
    09:00 +38°C° 0 mm 2 mps 755 mmHg 25%
    10:00 +39°C° 0 mm 2 mps 755 mmHg 23%
    11:00 +40°C° 0 mm 2 mps 754 mmHg 21%
    12:00 +42°C° 0 mm 1 mps 754 mmHg 20%
    13:00 +42°C° 0 mm 2 mps 753 mmHg 19%
    14:00 +43°C° 0 mm 2 mps 753 mmHg 18%
    15:00 +45°C° 0 mm 2 mps 753 mmHg 17%
    16:00 +45°C° 0 mm 2 mps 753 mmHg 17%
    17:00 +43°C° 0 mm 2 mps 753 mmHg 17%
    18:00 +43°C° 0 mm 2 mps 753 mmHg 18%
    19:00 +41°C° 0 mm 2 mps 753 mmHg 21%
    20:00 +38°C° 0 mm 3 mps 754 mmHg 24%
    21:00 +36°C° 0 mm 3 mps 754 mmHg 27%
    22:00 +35°C° 0 mm 3 mps 754 mmHg 30%
    23:00 +34°C° 0 mm 3 mps 754 mmHg 33%

    29 July, Saturday

    Time Temperature Precipitation Wind Pressure Humidity
    00:00 +32°C° 0 mm 2 mps 755 mmHg 36%
    01:00 +31°C° 0 mm 2 mps 755 mmHg 37%
    02:00 +31°C° 0 mm 1 mps 755 mmHg 38%
    03:00 +30°C° 0 mm 1 mps 755 mmHg 40%
    04:00 +31°C° 0 mm 1 mps 755 mmHg 38%
    05:00 +31°C° 0 mm 2 mps 755 mmHg 36%
    06:00 +33°C° 0 mm 3 mps 755 mmHg 34%
    07:00 +35°C° 0 mm 3 mps 755 mmHg 29%
    08:00 +38°C° 0 mm 4 mps 754 mmHg 24%
    09:00 +41°C° 0 mm 4 mps 754 mmHg 19%
    10:00 +43°C° 0 mm 4 mps 754 mmHg 17%
    11:00 +44°C° 0 mm 4 mps 753 mmHg 15%
    12:00 +47°C° 0 mm 4 mps 753 mmHg 13%
    13:00 +46°C° 0 mm 3 mps 752 mmHg 12%
    14:00 +47°C° 0 mm 3 mps 752 mmHg 12%
    15:00 +48°C° 0 mm 2 mps 751 mmHg 11%
    16:00 +47°C° 0 mm 2 mps 752 mmHg 12%
    17:00 +46°C° 0 mm 1 mps 752 mmHg 12%
    18:00 +45°C° 0 mm 1 mps 752 mmHg 13%
    19:00 +42°C° 0 mm 2 mps 753 mmHg 16%
    20:00 +40°C° 0 mm 3 mps 754 mmHg 19%
    21:00 +37°C° 0 mm 4 mps 755 mmHg 22%
    22:00 +36°C° 0 mm 4 mps 755 mmHg 26%
    23:00 +35°C° 0 mm 5 mps 756 mmHg 31%
    Show more